Location: Unspecified
(35.7250°N, 0.0000°E)
Time: 11:22:48
(UTC+00:00)

Transit 2A Rocket - Visible Passes

Search period start: 05 August 2020 00:00
Search period end: 15 August 2020 00:00
Orbit: 584 x 919 km, 66.7° (Epoch: 04 August)

Date Brightness Start Highest point End Pass type
(mag) Time Alt. Az. Time Alt. Az. Time Alt. Az.
05 Aug 7.8 04:23:20 10° SE 04:26:28 15° ESE 04:29:42 10° ENE visible
07 Aug 6.6 04:38:11 10° S 04:43:20 40° ESE 04:48:52 10° NE visible
08 Aug 7.4 03:56:47 10° SSE 04:01:03 23° ESE 04:05:33 10° NE visible
09 Aug 7.8 03:16:43 10° ESE 03:18:53 12° E 03:21:07 10° ENE visible
10 Aug 5.8 04:12:35 10° S 04:18:04 59° ESE 04:23:59 10° NE visible
11 Aug 6.7 03:30:45 10° S 03:35:42 33° ESE 03:40:59 10° NE visible
12 Aug 7.4 02:49:51 11° SE 02:53:28 19° ESE 02:57:27 10° ENE visible
12 Aug 5.5 04:29:54 10° SW 04:35:30 58° WNW 04:41:29 10° NNE visible
13 Aug 5.3 03:48:55 21° SSW 03:52:53 84° ESE 03:58:58 10° NNE visible
14 Aug 5.9 03:07:59 30° SSE 03:10:25 48° ESE 03:16:11 10° NE visible
14 Aug 6.5 04:48:30 10° WSW 04:53:19 26° NW 04:58:21 10° N visible
